Flag for Canada Weather past 2 weeks in Coquitlam, British Columbia, Canada

Now
47 °F

Cool.


Feels Like: 44 °F
Forecast: 48 / 67 °F
Wind: 7 mph from Northeast

Location: P. Meadows Coastal Station

Current Time: Apr 27, 2015 at 5:50:13 AM

Latest Report: Apr 27, 2015 at 5:00 AM


Visibility: N/A

Pressure: 30.26 "Hg

Humidity: 95%

Dew point: 46 °F

Location of CoquitlamLocation

Historic Weather in Coquitlam — Graph

°F

Coquitlam temperature yesterday

Maximum temperature yesterday: 60 °F (at 5:00 PM)
Minimum temperature yesterday: 36 °F (at 6:00 AM)
Average temperature yesterday: 49 °F

Past Weeks' High & Low Weather Summary

 TemperatureHumidityPressure
High72 °F (Apr 20, 4:00 PM)100% (Apr 14, 5:00 AM)30.54 "Hg (Apr 14, 5:00 AM)
Low36 °F (Apr 26, 6:00 AM)34% (Apr 22, 2:00 PM)29.72 "Hg (Apr 24, 5:00 AM)
Average49 °F76%30.10 "Hg
* Reported Apr 12 4:00 AM — Apr 27 4:00 AM, Coquitlam, Weather by CustomWeather, © 2015

Note: Actual official high and low records may vary slightly from our data, if they occured in-between our weather recording intervals... More about our weather records

Advertising

Coquitlam weather history for previous 24 hours

 ConditionsComfort  
Time TempWeatherWind HumidityBarometerVisibility
4:00 AM
Mon, Apr 27
47 °FCool.7 mph94%30.26 "HgN/A
3:00 AM48 °FCool.8 mph91%30.26 "HgN/A
2:00 AM49 °FCool.9 mph86%30.26 "HgN/A
1:00 AM49 °FCool.9 mph85%30.26 "HgN/A
12:00 AM50 °FCool.10 mph83%30.25 "HgN/A
11:00 PM
Sun, Apr 26
50 °FCool.2 mph92%30.26 "HgN/A
10:00 PM51 °FCool.5 mph85%30.26 "HgN/A
9:00 PM55 °FCool.5 mph66%30.23 "HgN/A
8:00 PM57 °FRefreshingly cool.5 mph48%30.20 "HgN/A
7:00 PM58 °FRefreshingly cool.1 mph49%30.20 "HgN/A
6:00 PM59 °FRefreshingly cool.2 mph41%30.21 "HgN/A
5:00 PM60 °FRefreshingly cool.2 mph41%30.21 "HgN/A
4:00 PM59 °FRefreshingly cool.3 mph46%30.21 "HgN/A
3:00 PM59 °FRefreshingly cool.3 mph43%30.22 "HgN/A
2:00 PM59 °FRefreshingly cool.5 mph45%30.21 "HgN/A
1:00 PM58 °FRefreshingly cool.3 mph43%30.21 "HgN/A
12:00 PM57 °FRefreshingly cool.2 mph48%30.21 "HgN/A
11:00 AM55 °FRefreshingly cool.3 mph53%30.20 "HgN/A
9:00 AM48 °FCool.2 mph81%30.19 "HgN/A
8:00 AM45 °FQuite cool.2 mph89%30.16 "HgN/A
7:00 AM39 °FChilly.No wind99%30.16 "HgN/A
6:00 AM36 °FChilly.No wind98%30.16 "HgN/A
5:00 AM37 °FChilly.No wind97%30.14 "HgN/A
Weather by CustomWeather, © 2015

See weather overviewHow to use our weather pages